Terug naar catalogus

NOAA 5

ActiefWeerSSO
NORAD 9057·PAYLOAD·🇺🇸 United States

Gelanceerd Jul 29, 1976 vanaf Vandenberg Space Force Base

Loading…

Volgende Passages (komende 24 uur)

TLE

VersSource: Space-Track

Epoch: Sep 14, 2026, 09:59 UTC

1 09057U 76077A   26257.41619771 -.00000041  00000-0  35486-4 0  9992
2 09057 102.3131 244.0565 0009620 175.0316 352.4527 12.37834287265512

Volg NOAA 5 in realtime met AllMySat

Download on the App Store